Weather History for Grand Canyon, AZ

Change the Weather History Date:

Sunday, March 24, 2013

  Actual Average Record
Temperature  
Mean Temperature 30 °F -  
Max Temperature 50 °F 55 °F 69 °F (1998)
Min Temperature 10 °F 21 °F 9 °F (1987)
Degree Days  
Heating Degree Days 35    
Moisture  
Dew Point 0 °F    
Average Humidity 36    
Maximum Humidity 73    
Minimum Humidity 8    
Precipitation  
Precipitation 0.00 in - - ()
Sea Level Pressure  
Sea Level Pressure 30.09 in    
Wind  
Wind Speed 2 mph (NW)    
Max Wind Speed 13 mph    
Max Gust Speed 23 mph    
Visibility 10 miles    
Events      
Averages and records for this station are not official NWS values.
T = Trace of Precipitation, MM = Missing Value Source: NWS Daily Summary

Daily Weather History Graph

Daily Weather History Graph

Search for Another Location

Airport:

Trip Planner

Search our weather history database for the weather conditions in past years. The results will help you decide how hot, cold, wet, or windy it might be!

Date:

Astronomy

Mar. 24, 2013 Rise Set
Actual Time 6:25 AM MST 6:44 PM MST
Civil Twilight 6:00 AM MST 7:09 PM MST
Nautical Twilight 5:30 AM MST 7:39 PM MST
Astronomical Twilight 4:59 AM MST 8:10 PM MST
Moon 4:19 PM MST (3/24) 4:33 AM MST (3/24)
Length of Visible Light 13h 09m
Length of Day
12h 18m
Waxing Gibbous, 92% of the Moon is Illuminated
Mar 24
Waxing Gibbous
Mar 27
Full
Apr 2
Last Quarter
Apr 10
New
Apr 18
First Quarter

Hourly Weather History & Observations

Time (MST) Temp. Windchill Dew Point Humidity Pressure Visibility Wind Dir Wind Speed Gust Speed Precip Events Conditions
12:54 AM 15.1 °F - 3.0 °F 59% 30.13 in 10.0 mi Calm Calm - N/A   Clear
1:54 AM 12.9 °F - 3.0 °F 65% 30.13 in 10.0 mi Calm Calm - N/A   Clear
2:54 AM 12.9 °F - 3.0 °F 65% 30.12 in 10.0 mi Calm Calm - N/A   Clear
3:54 AM 12.0 °F - 3.9 °F 70% 30.13 in 10.0 mi Calm Calm - N/A   Clear
4:54 AM 12.0 °F - 3.9 °F 70% 30.13 in 10.0 mi Calm Calm - N/A   Clear
5:54 AM 10.0 °F - 3.0 °F 73% 30.15 in 10.0 mi Calm Calm - N/A   Clear
6:54 AM 12.9 °F - 5.0 °F 71% 30.15 in 10.0 mi Calm Calm - N/A   Clear
7:54 AM 27.0 °F - 6.1 °F 41% 30.15 in 10.0 mi Calm Calm - N/A   Clear
8:54 AM 37.9 °F - -2.0 °F 18% 30.12 in 10.0 mi Calm Calm - N/A   Clear
9:54 AM 42.1 °F 38.4 °F -0.9 °F 17% 30.11 in 10.0 mi Variable 5.8 mph - N/A   Clear
10:54 AM 45.0 °F 40.6 °F 1.0 °F 16% 30.08 in 10.0 mi NNW 8.1 mph 16.1 mph N/A   Clear
11:54 AM 46.0 °F 41.0 °F 3.0 °F 17% 30.06 in 10.0 mi NW 10.4 mph 19.6 mph N/A   Clear
12:54 PM 46.9 °F - -0.9 °F 14% 30.06 in 10.0 mi NW 9.2 mph 23.0 mph N/A   Clear
1:54 PM 48.0 °F - -5.1 °F 11% 30.04 in 10.0 mi NW 12.7 mph 20.7 mph N/A   Clear
2:54 PM 50.0 °F - -7.1 °F 9% 30.01 in 10.0 mi WNW 8.1 mph 20.7 mph N/A   Clear
4:54 PM 48.9 °F - -9.9 °F 8% 30.02 in 10.0 mi WNW 8.1 mph 18.4 mph N/A   Clear
5:54 PM 46.9 °F - -9.0 °F 9% 30.04 in 10.0 mi NW 8.1 mph 19.6 mph N/A   Clear
6:54 PM 42.1 °F 39.2 °F -4.0 °F 14% 30.07 in 10.0 mi Variable 4.6 mph - N/A   Clear
7:54 PM 33.1 °F - -0.9 °F 23% 30.06 in 10.0 mi Calm Calm - N/A   Clear
8:54 PM 25.0 °F - 1.9 °F 37% 30.08 in 10.0 mi Calm Calm - N/A   Clear
9:54 PM 24.1 °F 17.0 °F 3.0 °F 40% 30.08 in 10.0 mi NE 5.8 mph - N/A   Clear
10:54 PM 23.0 °F - 3.0 °F 42% 30.08 in 10.0 mi Calm Calm - N/A   Clear
11:54 PM 21.0 °F - 5.0 °F 50% 30.08 in 10.0 mi Calm Calm - N/A   Clear